Flag for U.S.A. Weather past 2 weeks in Overland Park, Kansas, U.S.A.

35 °F


Feels Like: 28 °F
Forecast: 28 / 42 °F
Wind: 9 mph from West

Location: Johnson County Executive Airport

Current Time: Nov 30, 2015 at 8:07:32 PM

Latest Report: Nov 30, 2015 at 6:53 PM

Visibility: 10 mi

Pressure: 29.95 "Hg

Humidity: 85%

Dew point: 31 °F

Location of Overland ParkLocation

Historic Weather in Overland Park — Graph


Overland Park temperature yesterday

Maximum temperature yesterday: 35 °F (at 1:53 PM)
Minimum temperature yesterday: 32 °F (at 12:53 AM)
Average temperature yesterday: 34 °F

Past Weeks' High & Low Weather Summary

High63 °F (Nov 26, 11:03 AM)100% (Nov 17, 9:53 AM)30.43 "Hg (Nov 17, 9:53 AM)
Low25 °F (Nov 21, 9:53 PM)25% (Nov 19, 3:53 PM)29.34 "Hg (Nov 18, 4:53 AM)
Average43 °F75%30.05 "Hg
* Reported Nov 15 5:53 PM — Nov 30 5:53 PM, Overland Park, Weather by CustomWeather, © 2015

Note: Actual official high and low records may vary slightly from our data, if they occured in-between our weather recording intervals... More about our weather records


Overland Park weather history for previous 24 hours

Time TempWeatherWind HumidityBarometerVisibility
5:53 PM
Mon, Nov 30
36 °FMostly cloudy.7 mph89%29.94 "Hg10 mi
4:56 PM37 °FMore clouds than sun.12 mph93%29.90 "Hg9 mi
3:55 PM39 °FOvercast.12 mph93%29.88 "Hg10 mi
2:53 PM39 °FFog.7 mph96%29.89 "Hg5 mi
1:53 PM40 °FFog.8 mph97%29.90 "Hg4 mi
1:00 PM40 °FLow clouds.7 mph97%29.90 "Hg7 mi
11:53 AM38 °FFog.5 mph97%29.94 "Hg4 mi
10:53 AM37 °FLight rain. Fog.No wind96%29.98 "Hg2 mi
9:53 AM36 °FLight rain. Fog.No wind100%30.01 "Hg2 mi
8:53 AM36 °FLight rain. Fog.No wind100%30.01 "Hg2 mi
7:53 AM35 °FLight rain. Fog.3 mph100%30.01 "Hg1 mi
6:53 AM35 °FLight rain. Fog.6 mph100%30.01 "Hg1 mi
6:01 AM35 °FFog.6 mph100%30.01 "Hg1 mi
5:53 AM35 °FFog.No wind100%30.03 "Hg1 mi
4:53 AM35 °FFog.9 mph96%30.02 "Hg2 mi
4:04 AM35 °FFog.7 mph100%30.03 "Hg2 mi
3:53 AM35 °FFog.7 mph100%30.05 "Hg2 mi
2:53 AM35 °FFog.3 mph100%30.08 "Hg2 mi
1:53 AM35 °FFog.6 mph100%30.09 "Hg3 mi
12:53 AM35 °FLow clouds.7 mph96%30.10 "Hg10 mi
11:53 PM
Sun, Nov 29
35 °FLight rain. Fog.7 mph96%30.13 "Hg6 mi
10:53 PM35 °FLow clouds.7 mph96%30.14 "Hg10 mi
9:53 PM35 °FLow clouds.7 mph96%30.15 "Hg8 mi
9:01 PM35 °FLow clouds.6 mph96%30.16 "Hg7 mi
Weather by CustomWeather, © 2015

See weather overviewHow to use our weather pages